Volver al catálogo

STARLINK-35413

ActivoComunicacionesVLEO
NORAD 65886·PAYLOAD·🇺🇸 United States

Lanzado Oct 7, 2025 desde Cape Canaveral Space Force Station

Loading…

Próximos Pases (próximas 24 horas)

TLE

ActualizadoSource: CelesTrak SupGP

Época: Sep 14, 2026, 22:59 UTC

1 65886C 25224E   26257.95812500 -.00021116  00000+0 -62335-3 0  2571
2 65886  53.1576 207.7247 0001278  92.2230 336.3828 15.34427550    17

Sigue STARLINK-35413 en tiempo real con AllMySat

Download on the App Store